Back to catalog

COSMOS 2251 DEB

AliveLEO
NORAD 34614·DEBRIS·🇷🇺 Russia

Launched Jun 16, 1993 from Plesetsk Cosmodrome

Loading…

Next Passes (next 24 hours)

TLE

FreshSource: Space-Track

Epoch: Sep 14, 2026, 07:04 UTC

1 34614U 93036WK  26257.29457881  .00004370  00000-0  16756-2 0  9996
2 34614  73.8745 205.5480 0179913 150.3716 359.8146 14.22303828886798

Track COSMOS 2251 DEB in real time with AllMySat

Download on the App Store